NSZ3407 GMMX-EKCH

Flight info

Callsign NSZ3407
Flight time 4h 1m
Altitude 34000
Route OBOGA UG850 VALBA UZ801 TOLSI UG5 KORIS DCT SVL N857 HIJ/N0440F360 Z230 TLD N858 ABRIX DCT CNA DCT ADABI DCT BOKNO UN858 VANAD UN874 PIWIZ DCT VADOM UN874 ARSAF DCT EGOZE DCT CMB DCT VEKIN DCT ADUTO/N0437F370 DCT VICOT DCT TALSA P729 TUDLO
Aircraft B738/M-SDE2E3FGHIRWXY/LB1

Departure

Time 2026-04-23 13:37
Airport Marrakesh Menara Airport (GMMX)

Arrival

Time 2026-04-23 17:38
Airport Copenhagen Kastrup Airport (EKCH)
Time Latitude Longitude Altitude Speed Heading
2026-04-23 13:12 31.60145 -8.02313 1548 ft 0 kts 265°
2026-04-23 13:26 31.60146 -8.02307 1548 ft 4 kts 266°
2026-04-23 13:27 31.60146 -8.02275 1542 ft 4 kts 275°
2026-04-23 13:27 31.60141 -8.02245 1538 ft 4 kts 293°
2026-04-23 13:27 31.60127 -8.02223 1539 ft 4 kts 343°
2026-04-23 13:27 31.60119 -8.02221 1540 ft 1 kts
2026-04-23 13:30 31.60129 -8.02220 1540 ft 5 kts
2026-04-23 13:30 31.60203 -8.02211 1548 ft 16 kts
2026-04-23 13:31 31.60317 -8.02199 1547 ft 16 kts
2026-04-23 13:31 31.60396 -8.02252 1544 ft 16 kts 277°
2026-04-23 13:31 31.60408 -8.02385 1546 ft 20 kts 276°
2026-04-23 13:31 31.60424 -8.02576 1546 ft 27 kts 276°
2026-04-23 13:32 31.60443 -8.02796 1543 ft 26 kts 276°
2026-04-23 13:32 31.60461 -8.03001 1547 ft 25 kts 275°
2026-04-23 13:32 31.60478 -8.03197 1544 ft 23 kts 276°
2026-04-23 13:32 31.60494 -8.03382 1547 ft 22 kts 276°
2026-04-23 13:33 31.60509 -8.03561 1547 ft 22 kts 275°
2026-04-23 13:33 31.60525 -8.03735 1545 ft 21 kts 277°
2026-04-23 13:33 31.60540 -8.03904 1547 ft 21 kts 276°
2026-04-23 13:33 31.60554 -8.04068 1544 ft 20 kts 276°
2026-04-23 13:34 31.60569 -8.04227 1542 ft 19 kts 276°
2026-04-23 13:34 31.60585 -8.04401 1548 ft 23 kts 276°
2026-04-23 13:34 31.60601 -8.04585 1540 ft 22 kts 276°
2026-04-23 13:34 31.60616 -8.04762 1539 ft 22 kts 276°
2026-04-23 13:35 31.60631 -8.04935 1541 ft 21 kts 276°
2026-04-23 13:35 31.60646 -8.05102 1549 ft 20 kts 276°
2026-04-23 13:35 31.60673 -8.05250 1549 ft 17 kts 319°
2026-04-23 13:35 31.60787 -8.05241 1550 ft 16 kts 20°
2026-04-23 13:36 31.60825 -8.05168 1550 ft 0 kts 98°
2026-04-23 13:36 31.60817 -8.05088 1550 ft 37 kts 96°
2026-04-23 13:36 31.60767 -8.04505 1544 ft 106 kts 96°
2026-04-23 13:36 31.60670 -8.03405 1533 ft 163 kts 96°
2026-04-23 13:37 31.60557 -8.01989 1945 ft 179 kts 94°
2026-04-23 13:37 31.60260 -8.00524 2580 ft 193 kts 117°
2026-04-23 13:37 31.59685 -7.99167 3459 ft 186 kts 113°
2026-04-23 13:37 31.59131 -7.97700 3896 ft 211 kts 112°
2026-04-23 13:38 31.58512 -7.96009 4123 ft 236 kts 112°
2026-04-23 13:38 31.57858 -7.94194 4502 ft 250 kts 112°
2026-04-23 13:38 31.57166 -7.92244 5101 ft 260 kts 108°
2026-04-23 13:38 31.57051 -7.90139 5619 ft 271 kts 73°
2026-04-23 13:39 31.58010 -7.88245 6310 ft 277 kts 42°
2026-04-23 13:39 31.59599 -7.86881 6981 ft 284 kts 33°
2026-04-23 13:39 31.61272 -7.85625 7588 ft 293 kts 33°
2026-04-23 13:39 31.63000 -7.84351 8374 ft 295 kts 33°
2026-04-23 13:40 31.64762 -7.83048 9014 ft 304 kts 33°
2026-04-23 13:40 31.66591 -7.81684 9702 ft 311 kts 34°
2026-04-23 13:40 31.68408 -7.80318 10323 ft 319 kts 34°
2026-04-23 13:40 31.70344 -7.78852 10500 ft 343 kts 34°
2026-04-23 13:41 31.72409 -7.77282 10738 ft 363 kts 34°
2026-04-23 13:41 31.74554 -7.75647 11255 ft 372 kts 34°
2026-04-23 13:41 31.76740 -7.73980 11899 ft 376 kts 34°
2026-04-23 13:41 31.78944 -7.72297 12597 ft 380 kts 34°
2026-04-23 13:42 31.81170 -7.70594 13276 ft 384 kts 34°
2026-04-23 13:42 31.83427 -7.68866 13840 ft 391 kts 34°
2026-04-23 13:42 31.85714 -7.67114 14433 ft 394 kts 34°
2026-04-23 13:42 31.88017 -7.65349 15083 ft 396 kts 33°
2026-04-23 13:43 31.90338 -7.63567 15711 ft 400 kts 33°
2026-04-23 13:43 31.92674 -7.61774 16320 ft 403 kts 33°
2026-04-23 13:43 31.95032 -7.59963 16939 ft 406 kts 32°
2026-04-23 13:43 31.97407 -7.58137 17520 ft 410 kts 32°
2026-04-23 13:44 31.99806 -7.56291 18128 ft 413 kts 32°
2026-04-23 13:44 32.02212 -7.54439 18680 ft 415 kts 32°
2026-04-23 13:44 32.04640 -7.52573 19207 ft 418 kts 31°
2026-04-23 13:44 32.06360 -7.51449 19528 ft 419 kts 23°
2026-04-23 13:45 32.09113 -7.50319 20028 ft 420 kts 11°
2026-04-23 13:45 32.11993 -7.49805 20540 ft 419 kts 359°
2026-04-23 13:45 32.14914 -7.49787 21053 ft 421 kts 356°
2026-04-23 13:45 32.17854 -7.49844 21514 ft 424 kts 356°
2026-04-23 13:46 32.20817 -7.49915 21972 ft 428 kts 356°
2026-04-23 13:46 32.23808 -7.49976 22437 ft 431 kts 356°
2026-04-23 13:46 32.26821 -7.50022 22902 ft 435 kts 357°
2026-04-23 13:46 32.29857 -7.50056 23350 ft 438 kts 357°
2026-04-23 13:47 32.32915 -7.50082 23756 ft 441 kts 357°
2026-04-23 13:47 32.35990 -7.50104 24154 ft 443 kts 357°
2026-04-23 13:47 32.39038 -7.50124 24567 ft 444 kts 357°
2026-04-23 13:47 32.42137 -7.50145 24958 ft 446 kts 357°
2026-04-23 13:48 32.45250 -7.50166 25343 ft 448 kts 357°
2026-04-23 13:48 32.48378 -7.50189 25717 ft 451 kts 356°
2026-04-23 13:48 32.51563 -7.50211 26088 ft 453 kts 356°
2026-04-23 13:48 32.54678 -7.50234 26449 ft 455 kts 356°
2026-04-23 13:49 32.57847 -7.50257 26811 ft 457 kts 356°
2026-04-23 13:49 32.61031 -7.50280 27165 ft 459 kts 356°
2026-04-23 13:49 32.64230 -7.50303 27515 ft 461 kts 356°
2026-04-23 13:49 32.67446 -7.50315 27852 ft 463 kts 356°
2026-04-23 13:50 32.70673 -7.50339 28183 ft 465 kts 356°
2026-04-23 13:50 32.73911 -7.50371 28514 ft 467 kts 356°
2026-04-23 13:50 32.77171 -7.50406 28836 ft 469 kts 356°
2026-04-23 13:50 32.80441 -7.50439 29140 ft 471 kts 356°
2026-04-23 13:51 32.83724 -7.50471 29447 ft 473 kts 356°
2026-04-23 13:51 32.87021 -7.50502 29745 ft 475 kts 356°
2026-04-23 13:51 32.90334 -7.50524 30026 ft 477 kts 356°
2026-04-23 13:51 32.93655 -7.50536 30316 ft 478 kts 356°
2026-04-23 13:52 32.96971 -7.50545 30664 ft 476 kts 356°
2026-04-23 13:52 33.00277 -7.50554 31045 ft 474 kts 356°
2026-04-23 13:52 33.03575 -7.50566 31381 ft 474 kts 356°
2026-04-23 13:52 33.06871 -7.50580 31684 ft 473 kts 356°
2026-04-23 13:53 33.10169 -7.50561 31989 ft 474 kts 359°
2026-04-23 13:53 33.13457 -7.50117 32287 ft 479 kts
2026-04-23 13:53 33.16689 -7.49147 32613 ft 479 kts 12°
2026-04-23 13:53 33.19904 -7.48072 32911 ft 479 kts 13°
2026-04-23 13:54 33.23111 -7.46971 33198 ft 479 kts 13°
2026-04-23 13:54 33.26310 -7.45877 33493 ft 479 kts 12°
2026-04-23 13:54 33.29516 -7.44796 33781 ft 478 kts 12°
2026-04-23 13:54 33.32714 -7.43731 34060 ft 477 kts 12°
2026-04-23 13:55 33.35915 -7.42677 34287 ft 477 kts 12°
2026-04-23 13:55 33.39118 -7.41629 34508 ft 477 kts 12°
2026-04-23 13:55 33.42318 -7.40584 34708 ft 477 kts 12°
2026-04-23 13:55 33.45517 -7.39539 34931 ft 476 kts 12°
2026-04-23 13:56 33.48711 -7.38495 35155 ft 476 kts 11°
2026-04-23 13:56 33.51902 -7.37451 35364 ft 475 kts 11°
2026-04-23 13:56 33.55093 -7.36404 35585 ft 474 kts 12°
2026-04-23 13:56 33.58275 -7.35360 35774 ft 475 kts 11°
2026-04-23 13:57 33.61462 -7.34313 35956 ft 475 kts 11°
2026-04-23 13:57 33.67846 -7.32215 36018 ft 477 kts 11°
2026-04-23 13:58 33.74227 -7.30112 36025 ft 474 kts 11°
2026-04-23 13:58 33.80577 -7.28016 36023 ft 472 kts 12°
2026-04-23 13:59 33.86904 -7.25925 36030 ft 471 kts 12°
2026-04-23 13:59 33.93215 -7.23837 36035 ft 470 kts 12°
2026-04-23 14:00 33.98447 -7.22103 36043 ft 469 kts 12°
2026-04-23 14:00 34.05816 -7.19658 36044 ft 470 kts 12°
2026-04-23 14:01 34.12128 -7.17560 36050 ft 471 kts 12°
2026-04-23 14:01 34.18457 -7.15453 36050 ft 473 kts 12°
2026-04-23 14:02 34.24811 -7.13333 36047 ft 474 kts 12°
2026-04-23 14:02 34.31181 -7.11205 36050 ft 476 kts 12°
2026-04-23 14:03 34.37566 -7.09069 36037 ft 477 kts 12°
2026-04-23 14:03 34.43963 -7.06925 36035 ft 477 kts 12°
2026-04-23 14:04 34.50357 -7.04778 36041 ft 477 kts 12°
2026-04-23 14:04 34.56752 -7.02628 36042 ft 476 kts 12°
2026-04-23 14:05 34.62992 -6.99921 36044 ft 479 kts 24°
2026-04-23 14:05 34.68889 -6.96276 36038 ft 478 kts 26°
2026-04-23 14:06 34.74830 -6.92521 36034 ft 478 kts 25°
2026-04-23 14:06 34.80702 -6.88870 36036 ft 477 kts 25°
2026-04-23 14:07 34.86616 -6.85228 36031 ft 476 kts 25°
2026-04-23 14:07 34.95480 -6.79770 36034 ft 475 kts 25°
2026-04-23 14:08 35.01379 -6.76127 36037 ft 475 kts 25°
2026-04-23 14:08 35.07276 -6.72478 36035 ft 475 kts 25°
2026-04-23 14:09 35.13176 -6.68821 36028 ft 475 kts 25°
2026-04-23 14:09 35.19076 -6.65157 36033 ft 476 kts 25°
2026-04-23 14:10 35.24974 -6.61489 36028 ft 476 kts 25°
2026-04-23 14:10 35.30873 -6.57815 36022 ft 476 kts 25°
2026-04-23 14:11 35.36780 -6.54129 36022 ft 476 kts 25°
2026-04-23 14:11 35.42681 -6.50440 36025 ft 476 kts 25°
2026-04-23 14:12 35.48571 -6.46694 36021 ft 477 kts 27°
2026-04-23 14:12 35.54418 -6.42853 36020 ft 477 kts 27°
2026-04-23 14:13 35.60268 -6.39008 36025 ft 477 kts 27°
2026-04-23 14:13 35.66125 -6.35170 36020 ft 477 kts 27°
2026-04-23 14:14 35.71978 -6.31331 36024 ft 477 kts 27°
2026-04-23 14:14 35.77827 -6.27492 36022 ft 476 kts 27°
2026-04-23 14:15 35.83748 -6.23839 36011 ft 475 kts 19°
2026-04-23 14:15 35.90096 -6.21725 36024 ft 472 kts 11°
2026-04-23 14:16 35.96504 -6.19949 36027 ft 472 kts 11°
2026-04-23 14:16 36.02906 -6.18136 36023 ft 472 kts 11°
2026-04-23 14:17 36.09300 -6.16271 36024 ft 472 kts 12°
2026-04-23 14:17 36.15693 -6.14383 36023 ft 473 kts 12°
2026-04-23 14:18 36.22095 -6.12488 36017 ft 473 kts 12°
2026-04-23 14:18 36.28490 -6.10593 36018 ft 473 kts 12°
2026-04-23 14:19 36.34900 -6.08692 36016 ft 474 kts 12°
2026-04-23 14:19 36.41313 -6.06788 36007 ft 474 kts 12°
2026-04-23 14:20 36.47730 -6.04878 36015 ft 475 kts 12°
2026-04-23 14:20 36.54161 -6.02962 36010 ft 475 kts 12°
2026-04-23 14:21 36.60597 -6.01040 36017 ft 475 kts 12°
2026-04-23 14:21 36.67018 -5.99120 36025 ft 475 kts 12°
2026-04-23 14:22 36.73453 -5.97192 36022 ft 475 kts 12°
2026-04-23 14:22 36.79884 -5.95262 36020 ft 475 kts 12°
2026-04-23 14:23 36.86311 -5.93330 36004 ft 475 kts 12°
2026-04-23 14:23 36.92736 -5.91395 36007 ft 475 kts 12°
2026-04-23 14:24 36.99164 -5.89456 35991 ft 475 kts 12°
2026-04-23 14:24 37.05584 -5.87516 35972 ft 475 kts 12°
2026-04-23 14:25 37.12006 -5.85572 35974 ft 475 kts 13°
2026-04-23 14:25 37.18422 -5.83626 35973 ft 475 kts 12°
2026-04-23 14:26 37.24843 -5.81675 35989 ft 475 kts 13°
2026-04-23 14:26 37.31260 -5.79722 35968 ft 475 kts 13°
2026-04-23 14:27 37.36597 -5.78095 35970 ft 475 kts 13°
2026-04-23 14:27 37.43000 -5.76033 35966 ft 475 kts 18°
2026-04-23 14:28 37.49037 -5.72637 35969 ft 475 kts 26°
2026-04-23 14:28 37.54962 -5.68942 35974 ft 476 kts 26°
2026-04-23 14:29 37.60904 -5.65268 35971 ft 476 kts 26°
2026-04-23 14:29 37.66864 -5.61634 35984 ft 476 kts 26°
2026-04-23 14:30 37.72836 -5.58006 35979 ft 476 kts 25°
2026-04-23 14:30 37.78803 -5.54376 35981 ft 476 kts 26°
2026-04-23 14:31 37.84768 -5.50738 35981 ft 476 kts 26°
2026-04-23 14:31 37.90734 -5.47092 35977 ft 476 kts 26°
2026-04-23 14:32 37.96691 -5.43444 35980 ft 476 kts 26°
2026-04-23 14:32 38.02651 -5.39787 35972 ft 476 kts 26°
2026-04-23 14:33 38.08608 -5.36126 35984 ft 475 kts 26°
2026-04-23 14:33 38.14563 -5.32460 35975 ft 476 kts 26°
2026-04-23 14:34 38.20512 -5.28790 35982 ft 475 kts 26°
2026-04-23 14:34 38.26461 -5.25114 35965 ft 475 kts 26°
2026-04-23 14:35 38.32409 -5.21432 35973 ft 475 kts 26°
2026-04-23 14:35 38.38352 -5.17745 35961 ft 475 kts 26°
2026-04-23 14:36 38.44287 -5.14057 35972 ft 474 kts 26°
2026-04-23 14:36 38.50219 -5.10365 35963 ft 474 kts 26°
2026-04-23 14:37 38.56279 -5.07041 35962 ft 474 kts 21°
2026-04-23 14:37 38.62415 -5.03994 35960 ft 473 kts 21°
2026-04-23 14:38 38.68548 -5.00916 35957 ft 473 kts 21°
2026-04-23 14:38 38.74656 -4.97790 35959 ft 473 kts 21°
2026-04-23 14:39 38.80763 -4.94643 35947 ft 473 kts 22°
2026-04-23 14:39 38.86869 -4.91492 35967 ft 473 kts 22°
2026-04-23 14:40 38.92972 -4.88339 35961 ft 473 kts 22°
2026-04-23 14:40 38.99072 -4.85183 35955 ft 472 kts 22°
2026-04-23 14:41 39.05164 -4.82021 35962 ft 472 kts 22°
2026-04-23 14:41 39.11257 -4.78850 35958 ft 472 kts 22°
2026-04-23 14:42 39.17346 -4.75674 35961 ft 472 kts 22°
2026-04-23 14:42 39.23426 -4.72504 35969 ft 471 kts 22°
2026-04-23 14:43 39.29502 -4.69340 35965 ft 471 kts 22°
2026-04-23 14:43 39.35533 -4.66192 35970 ft 471 kts 22°
2026-04-23 14:44 39.41604 -4.63016 35972 ft 471 kts 22°
2026-04-23 14:44 39.47673 -4.59834 35967 ft 471 kts 22°
2026-04-23 14:45 39.53738 -4.56649 35971 ft 470 kts 22°
2026-04-23 14:45 39.59802 -4.53457 35978 ft 470 kts 22°
2026-04-23 14:46 39.65859 -4.50264 35969 ft 470 kts 22°
2026-04-23 14:46 39.71909 -4.47067 35972 ft 469 kts 22°
2026-04-23 14:47 39.77957 -4.43867 35967 ft 469 kts 22°
2026-04-23 14:47 39.83994 -4.40648 35970 ft 469 kts 22°
2026-04-23 14:48 39.90023 -4.37404 35976 ft 469 kts 22°
2026-04-23 14:48 39.96056 -4.34156 35983 ft 469 kts 22°
2026-04-23 14:49 40.02030 -4.30733 35980 ft 469 kts 25°
2026-04-23 14:49 40.07927 -4.27082 35978 ft 469 kts 25°
2026-04-23 14:50 40.13825 -4.23424 35988 ft 469 kts 25°
2026-04-23 14:50 40.19728 -4.19798 35990 ft 469 kts 25°
2026-04-23 14:51 40.25638 -4.16182 35994 ft 469 kts 25°
2026-04-23 14:51 40.31539 -4.12566 36006 ft 468 kts 25°
2026-04-23 14:52 40.37397 -4.08969 36003 ft 468 kts 25°
2026-04-23 14:52 40.43325 -4.05321 36017 ft 467 kts 25°
2026-04-23 14:53 40.49209 -4.01692 36035 ft 467 kts 25°
2026-04-23 14:53 40.55091 -3.98057 36051 ft 467 kts 25°
2026-04-23 14:54 40.60965 -3.94421 36064 ft 466 kts 25°
2026-04-23 14:54 40.66828 -3.90784 36069 ft 466 kts 25°
2026-04-23 14:55 40.72684 -3.87145 36076 ft 465 kts 25°
2026-04-23 14:55 40.78535 -3.83501 36071 ft 465 kts 24°
2026-04-23 14:56 40.84378 -3.79855 36061 ft 464 kts 25°
2026-04-23 14:56 40.90214 -3.76206 36052 ft 464 kts 25°
2026-04-23 14:57 40.96046 -3.72553 36047 ft 463 kts 25°
2026-04-23 14:57 41.01870 -3.68897 36030 ft 463 kts 24°
2026-04-23 14:58 41.07698 -3.65231 36022 ft 463 kts 25°
2026-04-23 14:58 41.13522 -3.61561 36009 ft 464 kts 25°
2026-04-23 14:59 41.19399 -3.58084 36010 ft 463 kts 21°
2026-04-23 14:59 41.25379 -3.54884 36017 ft 463 kts 20°
2026-04-23 15:00 41.31353 -3.51671 35992 ft 463 kts 21°
2026-04-23 15:00 41.37308 -3.48413 36004 ft 463 kts 21°
2026-04-23 15:01 41.43262 -3.45135 35998 ft 463 kts 21°
2026-04-23 15:01 41.49212 -3.41857 35991 ft 463 kts 21°
2026-04-23 15:02 41.55167 -3.38575 35984 ft 463 kts 21°
2026-04-23 15:02 41.61120 -3.35291 35985 ft 463 kts 21°
2026-04-23 15:03 41.67066 -3.32003 35981 ft 462 kts 21°
2026-04-23 15:03 41.72998 -3.28716 35987 ft 461 kts 21°
2026-04-23 15:04 41.78931 -3.25421 35990 ft 461 kts 21°
2026-04-23 15:04 41.84849 -3.22128 35991 ft 461 kts 21°
2026-04-23 15:05 41.90768 -3.18827 36004 ft 460 kts 21°
2026-04-23 15:05 41.96680 -3.15524 35996 ft 460 kts 21°
2026-04-23 15:06 42.02587 -3.12217 36003 ft 459 kts 21°
2026-04-23 15:06 42.08443 -3.08932 35998 ft 459 kts 21°
2026-04-23 15:07 42.14327 -3.05625 36016 ft 458 kts 21°
2026-04-23 15:07 42.20212 -3.02310 36014 ft 458 kts 21°
2026-04-23 15:08 42.26081 -2.98997 36016 ft 458 kts 21°
2026-04-23 15:09 42.34895 -2.94009 36011 ft 458 kts 21°
2026-04-23 15:09 42.40773 -2.90675 36020 ft 458 kts 20°
2026-04-23 15:10 42.45648 -2.87868 36015 ft 459 kts 24°
2026-04-23 15:10 42.52224 -2.83073 36020 ft 460 kts 27°
2026-04-23 15:11 42.56836 -2.79497 36020 ft 459 kts 28°
2026-04-23 15:11 42.62397 -2.75216 36035 ft 459 kts 27°
2026-04-23 15:12 42.67960 -2.70979 36042 ft 459 kts 27°
2026-04-23 15:12 42.73560 -2.66727 36292 ft 462 kts 27°
2026-04-23 15:12 42.76366 -2.64594 36523 ft 462 kts 27°
2026-04-23 15:13 42.79165 -2.62464 36781 ft 461 kts 27°
2026-04-23 15:13 42.81962 -2.60332 37029 ft 460 kts 27°
2026-04-23 15:13 42.84748 -2.58205 37277 ft 458 kts 27°
2026-04-23 15:13 42.87527 -2.56083 37537 ft 457 kts 27°
2026-04-23 15:14 42.90292 -2.53968 37752 ft 456 kts 27°
2026-04-23 15:14 42.93061 -2.51849 37959 ft 455 kts 27°
2026-04-23 15:14 42.95822 -2.49732 38038 ft 456 kts 27°
2026-04-23 15:15 43.01371 -2.45475 38043 ft 457 kts 27°
2026-04-23 15:15 43.06882 -2.41235 38030 ft 452 kts 27°
2026-04-23 15:16 43.12334 -2.37032 38010 ft 447 kts 27°
2026-04-23 15:16 43.17732 -2.32863 38019 ft 446 kts 27°
2026-04-23 15:17 43.23181 -2.28649 38006 ft 453 kts 27°
2026-04-23 15:17 43.28693 -2.24375 38011 ft 457 kts 27°
2026-04-23 15:18 43.34251 -2.20055 38000 ft 460 kts 27°
2026-04-23 15:18 43.39773 -2.15752 37986 ft 452 kts 27°
2026-04-23 15:19 43.45211 -2.11506 38002 ft 448 kts 27°
2026-04-23 15:19 43.50621 -2.07277 38005 ft 447 kts 27°
2026-04-23 15:20 43.56032 -2.03036 38003 ft 447 kts 27°
2026-04-23 15:20 43.61402 -1.98819 38011 ft 447 kts 27°
2026-04-23 15:21 43.66847 -1.94534 38012 ft 448 kts 27°
2026-04-23 15:21 43.72265 -1.90262 38019 ft 449 kts 27°
2026-04-23 15:22 43.77651 -1.86005 38018 ft 449 kts 27°
2026-04-23 15:22 43.83117 -1.81675 38021 ft 450 kts 27°
2026-04-23 15:23 43.88553 -1.77360 38020 ft 451 kts 27°
2026-04-23 15:23 43.93991 -1.73033 38021 ft 451 kts 27°
2026-04-23 15:24 43.99433 -1.68695 38024 ft 451 kts 27°
2026-04-23 15:24 44.04872 -1.64349 38025 ft 451 kts 27°
2026-04-23 15:25 44.10271 -1.60026 38029 ft 450 kts 27°
2026-04-23 15:25 44.15697 -1.55672 38025 ft 450 kts 27°
2026-04-23 15:26 44.21113 -1.51317 38031 ft 449 kts 27°
2026-04-23 15:26 44.26517 -1.46962 38040 ft 448 kts 27°
2026-04-23 15:27 44.31909 -1.42608 38042 ft 447 kts 27°
2026-04-23 15:27 44.37285 -1.38257 38046 ft 446 kts 27°
2026-04-23 15:28 44.42647 -1.33909 38045 ft 445 kts 27°
2026-04-23 15:28 44.48004 -1.29555 38051 ft 444 kts 27°
2026-04-23 15:29 44.53344 -1.25205 38048 ft 444 kts 27°
2026-04-23 15:29 44.58674 -1.20855 38054 ft 443 kts 27°
2026-04-23 15:30 44.64004 -1.16495 38054 ft 443 kts 27°
2026-04-23 15:30 44.69322 -1.12135 38058 ft 442 kts 27°
2026-04-23 15:31 44.74635 -1.07771 38055 ft 442 kts 27°
2026-04-23 15:31 44.79943 -1.03401 38062 ft 442 kts 27°
2026-04-23 15:32 44.85243 -0.99028 38085 ft 442 kts 27°
2026-04-23 15:32 44.90540 -0.94648 38071 ft 442 kts 27°
2026-04-23 15:33 44.95842 -0.90255 38073 ft 442 kts 27°
2026-04-23 15:33 45.01142 -0.85853 38078 ft 442 kts 27°
2026-04-23 15:34 45.06439 -0.81445 38077 ft 442 kts 28°
2026-04-23 15:34 45.11728 -0.77034 38079 ft 442 kts 28°
2026-04-23 15:35 45.16987 -0.72638 38076 ft 441 kts 28°
2026-04-23 15:35 45.22301 -0.68186 38081 ft 441 kts 28°
2026-04-23 15:36 45.27575 -0.63758 38086 ft 440 kts 28°
2026-04-23 15:36 45.32845 -0.59324 38085 ft 440 kts 28°
2026-04-23 15:37 45.38106 -0.54888 38091 ft 439 kts 28°
2026-04-23 15:37 45.42471 -0.51200 38082 ft 439 kts 28°
2026-04-23 15:38 45.48599 -0.46010 38097 ft 438 kts 28°
2026-04-23 15:38 45.53837 -0.41565 38101 ft 438 kts 28°
2026-04-23 15:39 45.59029 -0.37147 38105 ft 437 kts 28°
2026-04-23 15:39 45.64280 -0.32671 38105 ft 436 kts 28°
2026-04-23 15:40 45.69461 -0.28126 38101 ft 437 kts 30°
2026-04-23 15:40 45.74555 -0.23409 38107 ft 436 kts 30°
2026-04-23 15:41 45.79607 -0.18705 38105 ft 436 kts 30°
2026-04-23 15:41 45.84695 -0.13987 38103 ft 435 kts 30°
2026-04-23 15:42 45.89781 -0.09276 38110 ft 435 kts 30°
2026-04-23 15:42 45.94868 -0.04557 38108 ft 435 kts 30°
2026-04-23 15:43 45.99990 0.00205 38117 ft 435 kts 30°
2026-04-23 15:43 46.05035 0.04907 38124 ft 435 kts 30°
2026-04-23 15:44 46.10119 0.09656 38122 ft 436 kts 30°
2026-04-23 15:44 46.15205 0.14418 38130 ft 436 kts 30°
2026-04-23 15:45 46.20288 0.19187 38129 ft 436 kts 30°
2026-04-23 15:45 46.25375 0.23971 38133 ft 436 kts 30°
2026-04-23 15:46 46.30455 0.28759 38145 ft 436 kts 30°
2026-04-23 15:46 46.35529 0.33552 38147 ft 436 kts 30°
2026-04-23 15:47 46.40607 0.38360 38154 ft 436 kts 30°
2026-04-23 15:47 46.45673 0.43169 38156 ft 435 kts 30°
2026-04-23 15:48 46.50732 0.47980 38157 ft 434 kts 30°
2026-04-23 15:48 46.55880 0.52530 38150 ft 430 kts 21°
2026-04-23 15:49 46.61524 0.55043 38167 ft 423 kts
2026-04-23 15:49 46.67281 0.56848 38156 ft 423 kts
2026-04-23 15:50 46.73024 0.58683 38155 ft 423 kts
2026-04-23 15:50 46.78761 0.60566 38159 ft 422 kts 10°
2026-04-23 15:51 46.84494 0.62467 38167 ft 422 kts 10°
2026-04-23 15:51 46.90224 0.64372 38166 ft 423 kts 10°
2026-04-23 15:52 46.95960 0.66282 38163 ft 423 kts 10°
2026-04-23 15:52 47.01699 0.68196 38167 ft 423 kts 10°
2026-04-23 15:53 47.07480 0.69614 38182 ft 420 kts
2026-04-23 15:53 47.13308 0.70176 38180 ft 420 kts
2026-04-23 15:54 47.19144 0.70720 38178 ft 420 kts
2026-04-23 15:54 47.23998 0.71209 38182 ft 421 kts
2026-04-23 15:55 47.29843 0.71819 38188 ft 421 kts
2026-04-23 15:55 47.35692 0.72435 38186 ft 422 kts
2026-04-23 15:56 47.41546 0.73051 38183 ft 422 kts
2026-04-23 15:56 47.47405 0.73669 38187 ft 422 kts
2026-04-23 15:57 47.53162 0.75483 38195 ft 426 kts 16°
2026-04-23 15:57 47.58773 0.78315 38189 ft 426 kts 16°
2026-04-23 15:58 47.64389 0.81145 38196 ft 426 kts 16°
2026-04-23 15:58 47.70016 0.83932 38195 ft 426 kts 16°
2026-04-23 15:59 47.75644 0.86710 38211 ft 426 kts 16°
2026-04-23 15:59 47.81276 0.89496 38223 ft 427 kts 16°
2026-04-23 16:00 47.86905 0.92303 38219 ft 427 kts 17°
2026-04-23 16:00 47.92524 0.95146 38219 ft 426 kts 17°
2026-04-23 16:01 47.98138 0.97995 38222 ft 426 kts 17°
2026-04-23 16:01 48.03756 1.00847 38228 ft 427 kts 17°
2026-04-23 16:02 48.09377 1.03708 38227 ft 427 kts 17°
2026-04-23 16:02 48.15004 1.06578 38238 ft 427 kts 17°
2026-04-23 16:03 48.20634 1.09455 38233 ft 428 kts 17°
2026-04-23 16:03 48.26265 1.12327 38232 ft 428 kts 17°
2026-04-23 16:04 48.31908 1.15201 38249 ft 428 kts 17°
2026-04-23 16:04 48.37557 1.18087 38244 ft 429 kts 17°
2026-04-23 16:05 48.42260 1.20496 38246 ft 429 kts 17°
2026-04-23 16:05 48.48875 1.23894 38251 ft 430 kts 17°
2026-04-23 16:06 48.54544 1.26811 38254 ft 431 kts 17°
2026-04-23 16:06 48.60231 1.29698 38255 ft 431 kts 17°
2026-04-23 16:07 48.65931 1.32560 38257 ft 432 kts 17°
2026-04-23 16:07 48.71636 1.35437 38268 ft 433 kts 17°
2026-04-23 16:08 48.77350 1.38331 38267 ft 433 kts 17°
2026-04-23 16:08 48.83072 1.41239 38280 ft 434 kts 17°
2026-04-23 16:09 48.88794 1.44153 38283 ft 434 kts 18°
2026-04-23 16:09 48.94513 1.47185 38282 ft 436 kts 24°
2026-04-23 16:10 48.99597 1.52184 38290 ft 438 kts 41°
2026-04-23 16:10 49.03749 1.58996 38288 ft 440 kts 48°
2026-04-23 16:11 49.07770 1.66045 38273 ft 441 kts 48°
2026-04-23 16:11 49.11815 1.73073 38272 ft 441 kts 48°
2026-04-23 16:12 49.15888 1.80093 38274 ft 442 kts 48°
2026-04-23 16:12 49.19969 1.87128 38268 ft 442 kts 48°
2026-04-23 16:13 49.24046 1.94177 38271 ft 442 kts 48°
2026-04-23 16:13 49.30145 2.04765 38293 ft 441 kts 49°
2026-04-23 16:14 49.34197 2.11820 38293 ft 440 kts 49°
2026-04-23 16:14 49.38237 2.18874 38289 ft 440 kts 49°
2026-04-23 16:15 49.42263 2.25926 38296 ft 439 kts 49°
2026-04-23 16:15 49.46275 2.32975 38294 ft 438 kts 49°
2026-04-23 16:16 49.50280 2.40029 38301 ft 438 kts 50°
2026-04-23 16:16 49.54298 2.47068 38298 ft 437 kts 46°
2026-04-23 16:17 49.59098 2.52815 38324 ft 439 kts 33°
2026-04-23 16:17 49.64306 2.57752 38320 ft 440 kts 33°
2026-04-23 16:18 49.69516 2.62707 38328 ft 441 kts 33°
2026-04-23 16:18 49.74721 2.67741 38324 ft 442 kts 33°
2026-04-23 16:19 49.79923 2.72819 38327 ft 443 kts 33°
2026-04-23 16:19 49.85143 2.77932 38321 ft 444 kts 33°
2026-04-23 16:20 49.90374 2.83067 38328 ft 445 kts 34°
2026-04-23 16:20 49.95612 2.88222 38321 ft 446 kts 34°
2026-04-23 16:21 50.00821 2.93362 38329 ft 447 kts 33°
2026-04-23 16:21 50.06063 2.98548 38327 ft 446 kts 34°
2026-04-23 16:22 50.11299 3.03742 38336 ft 446 kts 34°
2026-04-23 16:22 50.16527 3.08941 38322 ft 446 kts 34°
2026-04-23 16:23 50.21748 3.14144 38340 ft 445 kts 34°
2026-04-23 16:23 50.27284 3.18468 38356 ft 446 kts 25°
2026-04-23 16:24 50.32974 3.22318 38354 ft 445 kts 25°
2026-04-23 16:24 50.38635 3.26251 38350 ft 445 kts 26°
2026-04-23 16:25 50.44230 3.30397 38349 ft 444 kts 28°
2026-04-23 16:25 50.49733 3.34806 38350 ft 444 kts 28°
2026-04-23 16:26 50.55300 3.39016 38361 ft 445 kts 25°
2026-04-23 16:26 50.60974 3.42918 38343 ft 445 kts 25°
2026-04-23 16:27 50.66651 3.46813 38365 ft 445 kts 25°
2026-04-23 16:27 50.72319 3.50763 38356 ft 445 kts 25°
2026-04-23 16:28 50.77977 3.54744 38370 ft 445 kts 25°
2026-04-23 16:28 50.83626 3.58734 38367 ft 445 kts 25°
2026-04-23 16:29 50.89291 3.62746 38635 ft 446 kts 25°
2026-04-23 16:29 50.92116 3.64751 38889 ft 444 kts 25°
2026-04-23 16:29 50.94937 3.66755 39047 ft 445 kts 25°
2026-04-23 16:30 50.97761 3.68764 39169 ft 445 kts 25°
2026-04-23 16:30 51.00570 3.70763 39311 ft 439 kts 25°
2026-04-23 16:30 51.06126 3.74726 39371 ft 438 kts 25°
2026-04-23 16:31 51.11711 3.78724 39396 ft 443 kts 25°
2026-04-23 16:31 51.17357 3.82775 39394 ft 447 kts 26°
2026-04-23 16:32 51.23035 3.86859 39398 ft 449 kts 25°
2026-04-23 16:32 51.28734 3.90971 39382 ft 449 kts 26°
2026-04-23 16:33 51.34383 3.95055 39379 ft 441 kts 26°
2026-04-23 16:33 51.39926 3.99076 39385 ft 435 kts 26°
2026-04-23 16:34 51.45420 4.03070 39386 ft 432 kts 26°
2026-04-23 16:34 51.50536 4.08075 39380 ft 432 kts 41°
2026-04-23 16:35 51.55107 4.14427 39390 ft 437 kts 42°
2026-04-23 16:35 51.59687 4.20913 39389 ft 441 kts 42°
2026-04-23 16:36 51.64316 4.27421 39389 ft 443 kts 42°
2026-04-23 16:36 51.68192 4.32841 39384 ft 444 kts 42°
2026-04-23 16:37 51.72848 4.39349 39400 ft 441 kts 42°
2026-04-23 16:37 51.77460 4.45813 39385 ft 435 kts 42°
2026-04-23 16:38 51.81995 4.52186 39401 ft 429 kts 42°
2026-04-23 16:38 51.86479 4.58507 39402 ft 426 kts 42°
2026-04-23 16:39 51.90950 4.64829 39419 ft 428 kts 42°
2026-04-23 16:39 51.95446 4.71203 39409 ft 430 kts 42°
2026-04-23 16:40 51.99970 4.77635 39416 ft 435 kts 42°
2026-04-23 16:40 52.04536 4.84145 39409 ft 439 kts 42°
2026-04-23 16:41 52.09139 4.90725 39411 ft 442 kts 42°
2026-04-23 16:41 52.13732 4.97309 39388 ft 437 kts 42°
2026-04-23 16:42 52.18258 5.03816 39397 ft 430 kts 42°
2026-04-23 16:42 52.22716 5.10243 39392 ft 425 kts 42°
2026-04-23 16:43 52.27130 5.16625 39410 ft 424 kts 42°
2026-04-23 16:43 52.31555 5.23043 39409 ft 427 kts 42°
2026-04-23 16:44 52.36012 5.29524 39419 ft 431 kts 42°
2026-04-23 16:44 52.40515 5.36088 39411 ft 435 kts 42°
2026-04-23 16:45 52.45047 5.42715 39416 ft 438 kts 42°
2026-04-23 16:45 52.49583 5.49382 39408 ft 437 kts 43°
2026-04-23 16:46 52.53882 5.56373 39396 ft 432 kts 46°
2026-04-23 16:46 52.58004 5.63425 39401 ft 426 kts 46°
2026-04-23 16:47 52.62107 5.70425 39413 ft 423 kts 46°
2026-04-23 16:47 52.66204 5.77371 39404 ft 422 kts 46°
2026-04-23 16:48 52.70302 5.84309 39406 ft 423 kts 46°
2026-04-23 16:48 52.74410 5.91276 39406 ft 424 kts 46°
2026-04-23 16:49 52.78530 5.98284 39407 ft 426 kts 46°
2026-04-23 16:49 52.82667 6.05342 39402 ft 429 kts 46°
2026-04-23 16:50 52.86823 6.12454 39408 ft 431 kts 46°
2026-04-23 16:50 52.90994 6.19612 39394 ft 433 kts 46°
2026-04-23 16:51 52.95173 6.26806 39405 ft 434 kts 46°
2026-04-23 16:51 52.99356 6.34027 39397 ft 434 kts 46°
2026-04-23 16:52 53.03534 6.41262 39406 ft 434 kts 46°
2026-04-23 16:52 53.07702 6.48501 39395 ft 432 kts 46°
2026-04-23 16:53 53.11847 6.55721 39406 ft 431 kts 46°
2026-04-23 16:53 53.15973 6.62931 39397 ft 429 kts 46°
2026-04-23 16:54 53.20075 6.70120 39405 ft 427 kts 47°
2026-04-23 16:54 53.24154 6.77289 39394 ft 425 kts 47°
2026-04-23 16:55 53.28218 6.84454 39393 ft 424 kts 47°
2026-04-23 16:55 53.32267 6.91613 39376 ft 423 kts 47°
2026-04-23 16:56 53.36304 6.98770 39384 ft 423 kts 47°
2026-04-23 16:56 53.40334 7.05939 39375 ft 423 kts 47°
2026-04-23 16:57 53.44365 7.13128 39384 ft 423 kts 47°
2026-04-23 16:57 53.48396 7.20342 39378 ft 424 kts 47°
2026-04-23 16:58 53.52430 7.27579 39384 ft 425 kts 47°
2026-04-23 16:58 53.56467 7.34846 39374 ft 425 kts 47°
2026-04-23 16:59 53.60502 7.42131 39359 ft 426 kts 48°
2026-04-23 16:59 53.64542 7.49444 39352 ft 426 kts 48°
2026-04-23 17:00 53.68576 7.56772 39355 ft 426 kts 48°
2026-04-23 17:00 53.72592 7.64087 39344 ft 423 kts 48°
2026-04-23 17:01 53.76574 7.71362 39343 ft 420 kts 48°
2026-04-23 17:01 53.80531 7.78614 39341 ft 418 kts 49°
2026-04-23 17:02 53.84462 7.85839 39337 ft 417 kts 49°
2026-04-23 17:02 53.88318 7.93160 39329 ft 415 kts 56°
2026-04-23 17:03 53.91468 8.01350 39330 ft 415 kts 58°
2026-04-23 17:03 53.94563 8.09639 39332 ft 417 kts 58°
2026-04-23 17:04 53.97687 8.17958 39321 ft 419 kts 58°
2026-04-23 17:04 54.00835 8.26300 39321 ft 420 kts 58°
2026-04-23 17:05 54.03999 8.34692 39313 ft 422 kts 58°
2026-04-23 17:05 54.07165 8.43112 39312 ft 423 kts 58°
2026-04-23 17:06 54.10333 8.51566 39298 ft 423 kts 58°
2026-04-23 17:06 54.13493 8.60028 39293 ft 423 kts 58°
2026-04-23 17:07 54.16639 8.68482 39282 ft 421 kts 58°
2026-04-23 17:07 54.19767 8.76914 39280 ft 419 kts 59°
2026-04-23 17:08 54.22876 8.85326 39268 ft 418 kts 59°
2026-04-23 17:08 54.25961 8.93701 39271 ft 416 kts 59°
2026-04-23 17:09 54.29029 9.02059 39249 ft 414 kts 59°
2026-04-23 17:09 54.32085 9.10412 39251 ft 413 kts 59°
2026-04-23 17:10 54.35122 9.18739 39240 ft 412 kts 59°
2026-04-23 17:10 54.38150 9.27072 39241 ft 411 kts 59°
2026-04-23 17:11 54.41175 9.35422 38798 ft 419 kts 59°
2026-04-23 17:11 54.42731 9.39730 38090 ft 422 kts 59°
2026-04-23 17:11 54.44277 9.44015 37406 ft 422 kts 60°
2026-04-23 17:12 54.45816 9.48289 36810 ft 420 kts 60°
2026-04-23 17:12 54.47355 9.52570 36127 ft 421 kts 61°
2026-04-23 17:12 54.48889 9.56845 35471 ft 420 kts 61°
2026-04-23 17:12 54.50421 9.61120 34842 ft 419 kts 62°
2026-04-23 17:13 54.51945 9.65381 34201 ft 417 kts 62°
2026-04-23 17:13 54.53461 9.69631 33477 ft 416 kts 62°
2026-04-23 17:13 54.54969 9.73860 32815 ft 414 kts 63°
2026-04-23 17:13 54.56467 9.78071 32343 ft 408 kts 63°
2026-04-23 17:14 54.57941 9.82219 31833 ft 404 kts 63°
2026-04-23 17:14 54.59397 9.86323 31358 ft 399 kts 63°
2026-04-23 17:14 54.60834 9.90381 30894 ft 394 kts 63°
2026-04-23 17:14 54.62254 9.94399 30427 ft 390 kts 63°
2026-04-23 17:15 54.63659 9.98385 29919 ft 387 kts 63°
2026-04-23 17:15 54.65045 10.02321 29441 ft 382 kts 62°
2026-04-23 17:15 54.66415 10.06218 28975 ft 377 kts 62°
2026-04-23 17:15 54.67765 10.10065 28516 ft 373 kts 62°
2026-04-23 17:16 54.69100 10.13876 28056 ft 369 kts 62°
2026-04-23 17:16 54.70420 10.17649 27602 ft 366 kts 61°
2026-04-23 17:16 54.71733 10.21410 27135 ft 364 kts 61°
2026-04-23 17:16 54.73037 10.25152 26683 ft 362 kts 60°
2026-04-23 17:17 54.74339 10.28892 26243 ft 366 kts 60°
2026-04-23 17:17 54.75679 10.32749 25799 ft 380 kts 60°
2026-04-23 17:17 54.76586 10.35364 25479 ft 383 kts 59°
2026-04-23 17:17 54.77956 10.39312 25007 ft 381 kts 59°
2026-04-23 17:18 54.80667 10.47144 24043 ft 377 kts 59°
2026-04-23 17:18 54.82010 10.51032 23531 ft 376 kts 58°
2026-04-23 17:18 54.83350 10.54918 23016 ft 373 kts 58°
2026-04-23 17:19 54.84675 10.58770 22532 ft 371 kts 58°
2026-04-23 17:19 54.85989 10.62593 22066 ft 367 kts 58°
2026-04-23 17:19 54.87291 10.66387 21613 ft 364 kts 58°
2026-04-23 17:19 54.88582 10.70155 21165 ft 362 kts 58°
2026-04-23 17:20 54.89863 10.73901 20724 ft 359 kts 58°
2026-04-23 17:20 54.92392 10.81312 19847 ft 354 kts 58°
2026-04-23 17:21 54.94888 10.88650 18978 ft 351 kts 58°
2026-04-23 17:21 54.96124 10.92290 18548 ft 349 kts 58°
2026-04-23 17:21 54.98577 10.99535 17603 ft 345 kts 58°
2026-04-23 17:22 54.99791 11.03126 17151 ft 343 kts 57°
2026-04-23 17:22 55.02189 11.10240 16267 ft 338 kts 57°
2026-04-23 17:23 55.04554 11.17275 15446 ft 334 kts 57°
2026-04-23 17:23 55.05724 11.20761 15023 ft 333 kts 57°
2026-04-23 17:23 55.08050 11.27710 14087 ft 333 kts 57°
2026-04-23 17:24 55.09219 11.31205 13597 ft 333 kts 57°
2026-04-23 17:24 55.10380 11.34688 13126 ft 331 kts 57°
2026-04-23 17:24 55.12679 11.41597 12278 ft 326 kts 57°
2026-04-23 17:25 55.14943 11.48418 11443 ft 323 kts 56°
2026-04-23 17:25 55.16066 11.51809 11032 ft 321 kts 56°
2026-04-23 17:26 55.18269 11.58480 10493 ft 309 kts 56°
2026-04-23 17:26 55.20347 11.64796 10217 ft 291 kts 56°
2026-04-23 17:27 55.22304 11.70750 9878 ft 277 kts 55°
2026-04-23 17:27 55.23264 11.73673 9570 ft 275 kts 55°
2026-04-23 17:27 55.24216 11.76570 9269 ft 274 kts 55°
2026-04-23 17:27 55.25160 11.79450 8975 ft 272 kts 55°
2026-04-23 17:28 55.26101 11.82324 8675 ft 271 kts 55°
2026-04-23 17:28 55.27034 11.85181 8376 ft 270 kts 55°
2026-04-23 17:28 55.27964 11.88028 8084 ft 269 kts 55°
2026-04-23 17:28 55.28891 11.90871 7788 ft 268 kts 55°
2026-04-23 17:29 55.29811 11.93697 7493 ft 268 kts 55°
2026-04-23 17:29 55.30738 11.96548 7196 ft 267 kts 55°
2026-04-23 17:29 55.32579 12.02222 6597 ft 268 kts 55°
2026-04-23 17:30 55.33503 12.05072 6268 ft 268 kts 56°
2026-04-23 17:30 55.35343 12.10762 5640 ft 268 kts 56°
2026-04-23 17:30 55.36261 12.13606 5347 ft 267 kts 56°
2026-04-23 17:31 55.37176 12.16446 5050 ft 267 kts 56°
2026-04-23 17:31 55.38091 12.19287 4742 ft 267 kts 56°
2026-04-23 17:31 55.39002 12.22120 4447 ft 265 kts 56°
2026-04-23 17:31 55.39909 12.24940 4151 ft 265 kts 56°
2026-04-23 17:32 55.40805 12.27738 4006 ft 258 kts 56°
2026-04-23 17:32 55.41675 12.30455 3872 ft 251 kts 56°
2026-04-23 17:32 55.42519 12.33095 3769 ft 244 kts 56°
2026-04-23 17:32 55.43370 12.35599 3684 ft 232 kts 45°
2026-04-23 17:33 55.44469 12.37538 3621 ft 218 kts 35°
2026-04-23 17:33 55.45599 12.39243 3524 ft 210 kts 35°
2026-04-23 17:33 55.46697 12.40913 3285 ft 207 kts 35°
2026-04-23 17:33 55.47772 12.42574 2996 ft 204 kts 35°
2026-04-23 17:34 55.48826 12.44212 2742 ft 199 kts 36°
2026-04-23 17:34 55.49854 12.45811 2471 ft 195 kts 36°
2026-04-23 17:34 55.51842 12.48902 1945 ft 184 kts 36°
2026-04-23 17:35 55.52766 12.50341 1698 ft 172 kts 35°
2026-04-23 17:35 55.54412 12.52895 1271 ft 147 kts 35°
2026-04-23 17:35 55.55176 12.54079 1067 ft 146 kts 35°
2026-04-23 17:36 55.55949 12.55275 878 ft 148 kts 37°
2026-04-23 17:36 55.56721 12.56480 713 ft 149 kts 38°
2026-04-23 17:36 55.57492 12.57671 506 ft 147 kts 38°
2026-04-23 17:36 55.58247 12.58831 306 ft 142 kts 40°
2026-04-23 17:37 55.58992 12.59983 133 ft 142 kts 40°
2026-04-23 17:37 55.59726 12.61131 20 ft 135 kts 40°
2026-04-23 17:37 55.60844 12.62866 17 ft 86 kts 41°
2026-04-23 17:38 55.61256 12.63503 19 ft 72 kts 41°
2026-04-23 17:38 55.61535 12.63933 19 ft 30 kts 40°
2026-04-23 17:38 55.61626 12.64069 20 ft 8 kts 34°
2026-04-23 17:38 55.61691 12.64087 18 ft 14 kts 356°
2026-04-23 17:39 55.61804 12.64075 16 ft 17 kts 356°
2026-04-23 17:39 55.61915 12.64110 18 ft 16 kts 28°
2026-04-23 17:39 55.62015 12.64197 18 ft 16 kts 26°
2026-04-23 17:39 55.62112 12.64279 17 ft 15 kts 25°
2026-04-23 17:40 55.62204 12.64357 14 ft 14 kts 25°
2026-04-23 17:40 55.62267 12.64485 17 ft 14 kts 65°
2026-04-23 17:40 55.62309 12.64647 16 ft 15 kts 69°
2026-04-23 17:40 55.62283 12.64815 18 ft 15 kts 123°
2026-04-23 17:41 55.62229 12.64961 16 ft 14 kts 124°
2026-04-23 17:41 55.62241 12.65197 16 ft 13 kts
2026-04-23 17:41 55.62328 12.65206 17 ft 13 kts
2026-04-23 17:42 55.62498 12.65199 16 ft 10 kts 358°
2026-04-23 17:42 55.62565 12.65195 16 ft 9 kts 358°
2026-04-23 17:42 55.62611 12.65194 18 ft 4 kts
2026-04-23 17:43 55.62649 12.65223 18 ft 9 kts 33°
2026-04-23 17:43 55.62711 12.65250 16 ft 7 kts
2026-04-23 17:43 55.62727 12.65253 16 ft 0 kts